Location: Vancouver
(49.2500°N, 123.1330°W)
Time: 12:54:31
(UTC-07:00)

Iridium 21 - Visible Passes

Search period start: 27 May 2015 00:00
Search period end: 06 June 2015 00:00
Orbit: 776 x 779 km, 86.4° (Epoch: 27 May)

Date Brightness Start Highest point End Pass type
(mag) Time Alt. Az. Time Alt. Az. Time Alt. Az.
27 May 7.7 21:57:44 10° SW 22:02:15 28° WNW 22:06:41 10° NNW visible
29 May 8.5 22:34:13 10° W 22:36:36 13° WNW 22:38:46 10° NW visible
30 May 8.2 21:58:36 10° WSW 22:02:35 21° WNW 22:06:26 10° NNW visible
02 Jun 8.4 21:59:46 10° WSW 22:02:58 16° WNW 22:05:58 10° NNW visible
05 Jun 8.9 22:01:38 10° W 22:03:25 11° WNW 22:04:54 10° NW visible
